sat.trackr.live / text

‹ back to catalog

STARLINK-31913

NORAD 59667 · 2024-084P

PAYLOAD ACTIVE UNKNOWN

§ Identity

Operator
Country
US
Launch date
2024-05-06
Launch site
AFETR
Launch vehicle
Mass (kg)
RCS (m²)

Purposes: comms

External: N2YO · Heavens-Above · Gunter

§ Orbital elements

Epoch: 2026-05-24T20:28:33.186432Z

Period
94.27 min
Inclination
42.9996°
Eccentricity
0.0001562
Mean motion
15.27585927 rev/d
Perigee alt
482.0 km
Apogee alt
484.1 km
Semi-major
6,861.2 km
B*
6.9844e-5
RAAN
328.0099°
Arg perigee
269.1025°
Mean anomaly
90.9648°
Rev number
11,606

§ Raw data

STARLINK-319131 59667U 24084P   26144.85316188  .00001661  00000+0  69844-4 0  99962 59667  42.9996 328.0099 0001562 269.1025  90.9648 15.27585927116065

JSON: /api/v1/satellites/59667 · /tle

For live sub-satellite position, see the globe view (requires WebGL).

§ Visibility from observer

Set your observer location to see the next 7 days of passes ≥ 10°. The values pass through the URL so the page stays shareable.

No JS? Fill the form by hand. The geolocation button needs JavaScript.